GW5772 Weather Reports


Display with metric or nautical units.
time (UTC)temp
F
wind
direction
speed
MPH
gust
MPH
rain 1hr
in
rain 24hr
in
rain mn
in
humidity
%
barometer
mb
20260504201522 70 352 2.0 3.0 0.00 0.00 0.00 58 1011.6
20260504200022 69 244 1.0 2.0 0.00 0.00 0.00 62 1011.7
20260504194524 69 115 1.0 3.0 0.00 0.00 0.00 61 1011.7
20260504193028 69 100 2.0 2.0 0.00 0.00 0.00 61 1011.7
20260504191525 69 205 1.0 3.0 0.00 0.00 0.00 55 1011.7
20260504190016 69 350 2.0 4.0 0.00 0.00 0.00 56 1011.8
20260504184524 68 95 0.0 3.0 0.00 0.00 0.00 64 1011.9
20260504183028 67 259 2.0 3.0 0.00 0.00 0.00 60 1011.8
20260504181513 66 281 2.0 3.0 0.00 0.00 0.00 63 1011.9
20260504180018 64 281 2.0 7.0 0.00 0.00 0.00 64 1011.8
20260504174522 63 275 3.0 6.0 0.00 0.00 0.00 67 1011.8
20260504173013 62 280 1.0 7.0 0.00 0.00 0.00 71 1011.8
20260504171517 62 270 3.0 7.0 0.00 0.00 0.00 72 1011.9
20260504081519 50 310 0.0 0.0 0.00 0.00 0.00 89 1010.8
20260504050017 53 277 0.0 0.0 0.00 0.00 0.00 86 1010.7
20260504044535 53 277 0.0 0.0 0.00 0.00 0.00 85 1010.8
20260504043023 54 276 0.0 0.0 0.00 0.00 0.00 85 1010.6
20260504041525 55 276 0.0 1.0 0.00 0.00 0.00 82 1010.7
20260504040012 56 280 0.0 0.0 0.00 0.00 0.00 80 1010.6
20260504034524 57 280 0.0 0.0 0.00 0.00 0.00 76 1010.6
20260504033035 59 280 0.0 0.0 0.00 0.00 0.00 73 1010.7
20260504031528 61 280 0.0 0.0 0.00 0.00 0.00 69 1010.7
20260504030009 62 280 0.0 0.0 0.00 0.00 0.00 65 1010.6
20260504024520 63 280 0.0 0.0 0.00 0.00 0.00 64 1010.8
20260504023022 63 280 0.0 0.0 0.00 0.00 0.00 63 1010.8
20260504021531 63 280 0.0 2.0 0.00 0.00 0.00 64 1010.9
20260504020014 64 38 0.0 6.0 0.00 0.00 0.00 61 1011.1
20260504014515 65 259 1.0 4.0 0.00 0.00 0.00 62 1011.2
20260504013028 66 360 0.0 2.0 0.00 0.00 0.00 62 1011.3
20260504011524 65 282 0.0 6.0 0.00 0.00 0.00 64 1011.6
20260504010009 65 254 2.0 8.0 0.00 0.00 0.00 64 1011.6
20260504004513 66 288 0.0 5.0 0.00 0.00 0.00 66 1011.8
20260504003015 64 245 2.0 7.0 0.00 0.00 0.00 66 1011.9
20260504001522 63 272 5.0 10.0 0.00 0.00 0.00 66 1012.0
20260504000027 63 267 3.0 8.0 0.00 0.00 0.00 68 1012.1
20260503234511 64 274 5.0 10.0 0.00 0.00 0.00 67 1012.3
20260503233013 64 266 5.0 8.0 0.00 0.00 0.00 69 1012.3
20260503231520 63 301 2.0 10.0 0.00 0.00 0.00 71 1012.7
20260503230026 62 262 4.0 11.0 0.00 0.00 0.00 71 1012.9
20260503224507 62 265 6.0 15.0 0.00 0.00 0.00 72 1013.1
20260503223013 62 292 5.0 10.0 0.00 0.00 0.00 71 1013.3
20260503221529 63 279 4.0 8.0 0.00 0.00 0.00 70 1013.4
20260503220022 63 241 4.0 10.0 0.00 0.00 0.00 72 1013.6
20260503214526 63 341 4.0 11.0 0.00 0.00 0.00 73 1013.7
20260503213022 62 295 3.0 12.0 0.00 0.00 0.00 74 1013.8
20260503211519 61 250 7.0 14.0 0.00 0.00 0.00 74 1014.0
20260503210021 63 325 0.0 8.0 0.00 0.00 0.00 73 1014.2
20260503204526 63 271 5.0 9.0 0.00 0.00 0.00 71 1014.4
20260503203029 62 309 4.0 9.0 0.00 0.00 0.00 73 1014.6